sat.trackr.live / text

‹ back to catalog

VIREON-2

NORAD 68421 · 2026-067F

PAYLOAD ACTIVE UNKNOWN

§ Identity

Operator
Country
UK
Launch date
2026-03-30
Launch site
AFWTR
Launch vehicle
Mass (kg)
RCS (m²)

External: N2YO · Heavens-Above · Gunter

§ Orbital elements

Epoch: 2026-05-24T20:33:53.144640Z

Period
94.82 min
Inclination
97.4504°
Eccentricity
0.0001692
Mean motion
15.18621465 rev/d
Perigee alt
508.8 km
Apogee alt
511.2 km
Semi-major
6,888.1 km
B*
1.7200e-4
RAAN
103.6831°
Arg perigee
57.4295°
Mean anomaly
302.7103°
Rev number
840

§ Raw data

VIREON-21 68421U 26067F   26144.85686510  .00003492  00000+0  17200-3 0  99982 68421  97.4504 103.6831 0001692  57.4295 302.7103 15.18621465  8401

JSON: /api/v1/satellites/68421 · /tle

For live sub-satellite position, see the globe view (requires WebGL).

§ Visibility from observer

Set your observer location to see the next 7 days of passes ≥ 10°. The values pass through the URL so the page stays shareable.

No JS? Fill the form by hand. The geolocation button needs JavaScript.